TOURFACTS.DK  
Stats and Facts from Tour de France.

Tour de France 2018 starts in 203 days
  Riders   Stages   Teams   Summits   Yearly  


 
Search by year

 2017 - St. 21:  14824 starters.
  5132 different riders.
  635 teams.
  2232 stages.
  454 restdays.
  439589.60 km.
  5653 abandonnees.


Top 3
Christopher Froome86:20:55
Rigoberto Uran86:21:49
Romain Bardet86:23:15
Warren Barguil169 pt.
Primoz Roglic80 pt.
Thomas De Gendt64 pt.
Michael Matthews359 pt.
André Greipel234 pt.
Edvald Boasson Hagen220 pt.
Simon Yates86:27:09
Louis Meintjes86:29:15
Emanuel Buchmann86:54:16
Facts from Tour de France 2017
  |   Stages.  |   Stage winners.  |   Days in yellow  |   Average speed.  |   Route.  |   Teams.  |   All riders.  |   Rookies.  |   Withdrawls.  |  

  |   GC.  |   Polka  |   Green  |   White  |   Summits. (In tour)  |   Summits. (Points)  |   Miscellaneous.  |  

Stage 3 on 03 - 07 - 2017
         Owning:    Geraint Thomas      Nathan Brown      Marcel Kittel      Pierre-Roger Latour  

Pick a stage:  1 2 3 4 5 6 7 8 9 10 11 12 13 14 15 16 17 18 19 20 21
  VerviersLongwy | Dist: 212.50 km.
Cat: 4Côte de SartUSANathan Brown
1 point
 
Cat: 4Côte de WiltzGERNils Politt
1 point
 
Cat: 3Côte d'EschdorfGERNils Politt
2 points
 
Cat: 4Côte de Villers-la-MontagneFRALilian Calmejane
1 point
 
Cat: 3LONGWY - Côte des ReligieusesSVKPeter Sagan
2 points
 

Average speed for all riders in stage:  41,156 km./hr.
    Place:Name:Team:Time:Km/h:
SVKPeter SaganDEUBora–Hansgrohe05:07:19  +  00:00:00=41,488 
AUSMichael MatthewsDEUTeam Sunweb05:07:19  +  00:00:00=41,488 
ENGDaniel MartinBELQuick-Step Floors05:07:19  +  00:00:00=41,488 
4 BELGreg Van AvermaetUSABMC Racing Team05:07:19  +  00:00:00=41,488 
5 ITAAlberto BettiolUSACannondale-Drapac Pro Cycling ..05:07:21  +  00:00:02=41,484 
6 FRAArnaud DémareFRAFDJ05:07:21  +  00:00:02=41,484 
7 SUIJakob FuglsangKAZAstana Pro Team05:07:21  +  00:00:02=41,484 
8 WALGeraint ThomasGBRSky Procycling05:07:21  +  00:00:02=41,484 
9 KENChristopher FroomeGBRSky Procycling05:07:21  +  00:00:02=41,484 
10 POLRafal MajkaDEUBora–Hansgrohe05:07:21  +  00:00:02=41,484 
11 COLNairo QuintanaESPMovistar Team05:07:21  +  00:00:02=41,484 
12 FRARomain BardetFRAAg2r La Mondiale05:07:21  +  00:00:02=41,484 
13 BELTim WellensBELLotto Soudal05:07:21  +  00:00:02=41,484 
14 AUSRichie PorteUSABMC Racing Team05:07:21  +  00:00:02=41,484 
15 BELTiesj BenootBELLotto Soudal05:07:21  +  00:00:02=41,484 
16 FRAGuillaume MartinBELWanty – Groupe Gobert05:07:21  +  00:00:02=41,484 
17 ITAFabio AruKAZAstana Pro Team05:07:21  +  00:00:02=41,484 
18 ESPAlberto ContadorUSATrek – Segafredo05:07:21  +  00:00:02=41,484 
19 COLRigoberto UranUSACannondale-Drapac Pro Cycling ..05:07:21  +  00:00:02=41,484 
20 COLJohan Esteban ChavesAUSOrica - Scott05:07:21  +  00:00:02=41,484 
21 FRAPierre-Roger LatourFRAAg2r La Mondiale05:07:21  +  00:00:02=41,484 
22 BELPhilippe GilbertBELQuick-Step Floors05:07:21  +  00:00:02=41,484 
23 COLCarlos Alberto BetancurESPMovistar Team05:07:21  +  00:00:02=41,484 
24 RSALouis MeintjesUAEUAE Team Emirates05:07:21  +  00:00:02=41,484 
25 CZERoman KreuzigerAUSOrica - Scott05:07:21  +  00:00:02=41,484 
26 ESPMikel Landa MeanaGBRSky Procycling05:07:21  +  00:00:02=41,484 
27 NOREdvald Boasson HagenZAFDimension Data05:07:21  +  00:00:02=41,484 
28 GEREmanuel BuchmannDEUBora–Hansgrohe05:07:21  +  00:00:02=41,484 
29 ITADiego UlissiUAEUAE Team Emirates05:07:21  +  00:00:02=41,484 
30 AUSSimon ClarkeUSACannondale-Drapac Pro Cycling ..05:07:29  +  00:00:10=41,466 
31 FRAAlexis VuillermozFRAAg2r La Mondiale05:07:29  +  00:00:10=41,466 
32 ESPJesus HerradaESPMovistar Team05:07:29  +  00:00:10=41,466 
33 KAZAlexey LutsenkoKAZAstana Pro Team05:07:29  +  00:00:10=41,466 
34 ENGSimon YatesAUSOrica - Scott05:07:29  +  00:00:10=41,466 
35 COLSergio Luis HenaoGBRSky Procycling05:07:29  +  00:00:10=41,466 
36 BELSerge PauwelsZAFDimension Data05:07:29  +  00:00:10=41,466 
37 SUIMathias FrankFRAAg2r La Mondiale05:07:29  +  00:00:10=41,466 
38 FRARudy MolardFRAFDJ05:07:29  +  00:00:10=41,466 
39 FRAElie GesbertFRAFortuneo - Vital Concept05:07:34  +  00:00:15=41,454 
40 FRAWarren BarguilDEUTeam Sunweb05:07:34  +  00:00:15=41,454 
41 FRASylvain ChavanelFRADirect Energie05:07:38  +  00:00:19=41,445 
42 POLMichal KwiatkowskiGBRSky Procycling05:07:38  +  00:00:19=41,445 
43 FRABrice FeilluFRAFortuneo - Vital Concept05:07:39  +  00:00:20=41,443 
44 NZLGeorge BennettNLDTeam Lotto NL - Jumbo05:07:39  +  00:00:20=41,443 
45 BELJan BakelantsFRAAg2r La Mondiale05:07:39  +  00:00:20=41,443 
46 GERSimon GeschkeDEUTeam Sunweb05:07:39  +  00:00:20=41,443 
47 GERNikias ArndtDEUTeam Sunweb05:07:39  +  00:00:20=41,443 
48 USAAndrew TalanskyUSACannondale-Drapac Pro Cycling ..05:07:44  +  00:00:25=41,432 
49 FRANicolas RocheUSABMC Racing Team05:07:44  +  00:00:25=41,432 
50 FRAMaxime BouetFRAFortuneo - Vital Concept05:07:44  +  00:00:25=41,432 
51 SUIMichael AlbasiniAUSOrica - Scott05:07:47  +  00:00:28=41,425 
52 CZEZdenek StybarBELQuick-Step Floors05:07:47  +  00:00:28=41,425 
53 RSAReinardt Janse Van RensburgZAFDimension Data05:07:47  +  00:00:28=41,425 
54 PORTiago PintoCHETeam Katusha - Alpecin05:07:47  +  00:00:28=41,425 
55 RSADaryl ImpeyAUSOrica - Scott05:07:47  +  00:00:28=41,425 
56 ESPDaniel NavarroFRACofidis – Solutions Crédits05:07:47  +  00:00:28=41,425 
57 SUIStefan KüngUSABMC Racing Team05:07:54  +  00:00:35=41,410 
58 BELThomas DegandBELWanty – Groupe Gobert05:07:54  +  00:00:35=41,410 
59 ESPMikel NieveGBRSky Procycling05:07:54  +  00:00:35=41,410 
60 FRAAngelo TulikFRADirect Energie05:07:54  +  00:00:35=41,410 
61 ITASonny ColbrelliBHRBahrain-Merida05:07:58  +  00:00:39=41,401 
62 SLOGrega BoleBHRBahrain-Merida05:08:10  +  00:00:51=41,374 
63 HRVRobert KiserlovskiCHETeam Katusha - Alpecin05:08:17  +  00:00:58=41,358 
64 BELPieter VanspeybrouckBELWanty – Groupe Gobert05:08:17  +  00:00:58=41,358 
65 GERJohn DegenkolbUSATrek – Segafredo05:08:24  +  00:01:05=41,342 
66 FRANicolas EdetFRACofidis – Solutions Crédits05:08:24  +  00:01:05=41,342 
67 FRAJulien SimonFRACofidis – Solutions Crédits05:08:24  +  00:01:05=41,342 
68 ITADamiano CarusoUSABMC Racing Team05:08:24  +  00:01:05=41,342 
69 COLJarlinson Pantano GomezUSATrek – Segafredo05:08:24  +  00:01:05=41,342 
70 ARGEduardo SepulvedaFRAFortuneo - Vital Concept05:08:24  +  00:01:05=41,342 
71 DENMichael ValgrenKAZAstana Pro Team05:08:24  +  00:01:05=41,342 
72 ENGScott ThwaitesZAFDimension Data05:08:48  +  00:01:29=41,289 
73 FRALilian CalmejaneFRADirect Energie05:08:56  +  00:01:37=41,271 
74 BLRVasil KiryienkaGBRSky Procycling05:08:56  +  00:01:37=41,271 
75 AUSJay McCarthyDEUBora–Hansgrohe05:08:56  +  00:01:37=41,271 
76 BELOliver NaesenFRAAg2r La Mondiale05:08:56  +  00:01:37=41,271 
77 ITAManuele MoriUAEUAE Team Emirates05:08:56  +  00:01:37=41,271 
78 NZLDion SmithBELWanty – Groupe Gobert05:08:56  +  00:01:37=41,271 
79 GERPaul MartensNLDTeam Lotto NL - Jumbo05:08:56  +  00:01:37=41,271 
80 JPNYukiya ArashiroBHRBahrain-Merida05:08:56  +  00:01:37=41,271 
81 ITAMarco MarcatoUAEUAE Team Emirates05:08:56  +  00:01:37=41,271 
82 NORAlexander KristoffCHETeam Katusha - Alpecin05:09:01  +  00:01:42=41,260 
83 NZLPaddy BevinUSACannondale-Drapac Pro Cycling ..05:09:08  +  00:01:49=41,244 
84 GERRick ZabelCHETeam Katusha - Alpecin05:09:08  +  00:01:49=41,244 
85 NEDMarco MinnaardBELWanty – Groupe Gobert05:09:08  +  00:01:49=41,244 
86 SLOJanez BrajkovicBHRBahrain-Merida05:09:08  +  00:01:49=41,244 
87 CZEOndrej CinkBHRBahrain-Merida05:09:08  +  00:01:49=41,244 
88 ESPHaimar ZubeldiaUSATrek – Segafredo05:09:08  +  00:01:49=41,244 
89 POLPawel PoljanskiDEUBora–Hansgrohe05:09:08  +  00:01:49=41,244 
90 SLOPrimoz RoglicNLDTeam Lotto NL - Jumbo05:09:08  +  00:01:49=41,244 
91 FRAAdrien PetitFRADirect Energie05:09:08  +  00:01:49=41,244 
92 UKRAndriy GrivkoKAZAstana Pro Team05:09:08  +  00:01:49=41,244 
93 LUXBen GastauerFRAAg2r La Mondiale05:09:08  +  00:01:49=41,244 
94 BELJens KeukeleireAUSOrica - Scott05:09:08  +  00:01:49=41,244 
95 SUIDanilo WyssUSABMC Racing Team05:09:08  +  00:01:49=41,244 
96 NEDMaurits LammertinkCHETeam Katusha - Alpecin05:09:08  +  00:01:49=41,244 
97 DENLars BakBELLotto Soudal05:09:08  +  00:01:49=41,244 
98 AUSDamien HowsonAUSOrica - Scott05:09:08  +  00:01:49=41,244 
99 FRACyril GautierFRAAg2r La Mondiale05:09:08  +  00:01:49=41,244 
100 FRAFlorian VachonFRAFortuneo - Vital Concept05:09:08  +  00:01:49=41,244 
101 NEDJos Van EmdenNLDTeam Lotto NL - Jumbo05:09:08  +  00:01:49=41,244 
102 ITAFabio FellineUSATrek – Segafredo05:09:08  +  00:01:49=41,244 
103 ENGBen SwiftUAEUAE Team Emirates05:09:08  +  00:01:49=41,244 
104 BELGuillaume Van KeirsbulckBELWanty – Groupe Gobert05:09:08  +  00:01:49=41,244 
105 BELJürgen RoelandtsBELLotto Soudal05:09:08  +  00:01:49=41,244 
106 ITAAndrea PasqualonBELWanty – Groupe Gobert05:09:08  +  00:01:49=41,244 
107 NEDKoen De KortUSATrek – Segafredo05:09:08  +  00:01:49=41,244 
108 FRARomain HardyFRAFortuneo - Vital Concept05:09:08  +  00:01:49=41,244 
109 ETHTsgabu Gebremaryan GrmayBHRBahrain-Merida05:09:08  +  00:01:49=41,244 
110 FRAArthur VichotFRAFDJ05:09:08  +  00:01:49=41,244 
111 NEDMike TeunissenDEUTeam Sunweb05:09:08  +  00:01:49=41,244 
112 NZLJack BauerBELQuick-Step Floors05:09:24  +  00:02:05=41,209 
113 ITAMatteo TrentinBELQuick-Step Floors05:09:24  +  00:02:05=41,209 
114 NEDBauke MollemaUSATrek – Segafredo05:09:55  +  00:02:36=41,140 
115 ITAFabio SabatiniBELQuick-Step Floors05:09:55  +  00:02:36=41,140 
116 ITADaniele BennatiESPMovistar Team05:09:55  +  00:02:36=41,140 
117 ESPJonathan CastroviejoESPMovistar Team05:09:55  +  00:02:36=41,140 
118 URSIgnatas KonovalovasFRAFDJ05:09:55  +  00:02:36=41,140 
119 ESPImanol ErvitiESPMovistar Team05:09:55  +  00:02:36=41,140 
120 CRCAndrey AmadorESPMovistar Team05:09:55  +  00:02:36=41,140 
121 HRVKristijan DurasekUAEUAE Team Emirates05:09:55  +  00:02:36=41,140 
122 AUTBernhard EiselZAFDimension Data05:09:55  +  00:02:36=41,140 
123 GERAndré GreipelBELLotto Soudal05:09:55  +  00:02:36=41,140 
124 NORVegard Stake LaengenUAEUAE Team Emirates05:09:55  +  00:02:36=41,140 
125 FRAPierre-Luc PérichonFRAFortuneo - Vital Concept05:09:55  +  00:02:36=41,140 
126 ENGDaniel McLayFRAFortuneo - Vital Concept05:09:55  +  00:02:36=41,140 
127 NEDTimo RoosenNLDTeam Lotto NL - Jumbo05:09:55  +  00:02:36=41,140 
128 GERMarcel KittelBELQuick-Step Floors05:09:55  +  00:02:36=41,140 
129 NEDRamon SinkeldamDEUTeam Sunweb05:09:55  +  00:02:36=41,140 
130 GERTony MartinCHETeam Katusha - Alpecin05:09:55  +  00:02:36=41,140 
131 FRALaurent PichonFRAFortuneo - Vital Concept05:09:55  +  00:02:36=41,140 
132 FRAPerrig QuemeneurFRADirect Energie05:09:55  +  00:02:36=41,140 
133 FRAYohann GèneFRADirect Energie05:09:55  +  00:02:36=41,140 
134 FRAThomas VoecklerFRADirect Energie05:09:55  +  00:02:36=41,140 
135 NEDRoy CurversDEUTeam Sunweb05:09:55  +  00:02:36=41,140 
136 POLMaciej BodnarDEUBora–Hansgrohe05:09:55  +  00:02:36=41,140 
137 NEDLaurens ten DamDEUTeam Sunweb05:09:55  +  00:02:36=41,140 
138 ITADario CataldoKAZAstana Pro Team05:09:55  +  00:02:36=41,140 
139 FRAYoann OffredoBELWanty – Groupe Gobert05:09:55  +  00:02:36=41,140 
140 ESPLuis Angel MateFRACofidis – Solutions Crédits05:10:21  +  00:03:02=41,083 
141 FRANacer BouhanniFRACofidis – Solutions Crédits05:10:21  +  00:03:02=41,083 
142 BELDimitri ClaeysFRACofidis – Solutions Crédits05:10:21  +  00:03:02=41,083 
143 ESPMarkel IrizarUSATrek – Segafredo05:10:21  +  00:03:02=41,083 
144 SUIMichael SchärUSABMC Racing Team05:10:21  +  00:03:02=41,083 
145 COLDarwin AtapumaUAEUAE Team Emirates05:10:21  +  00:03:02=41,083 
146 KAZAndrey ZeitsKAZAstana Pro Team05:10:21  +  00:03:02=41,083 
147 FRAFlorian SénéchalFRACofidis – Solutions Crédits05:10:21  +  00:03:02=41,083 
148 KAZDmitriy GruzdevKAZAstana Pro Team05:10:21  +  00:03:02=41,083 
149 KAZBakhtiyar KozhatayevKAZAstana Pro Team05:10:26  +  00:03:07=41,072 
150 FRAThibaut PinotFRAFDJ05:10:26  +  00:03:07=41,072 
151 NEDDylan GroenewegenNLDTeam Lotto NL - Jumbo05:10:26  +  00:03:07=41,072 
152 AUSMathew HaymanAUSOrica - Scott05:10:31  +  00:03:12=41,061 
153 NEDDylan Van BaarleUSACannondale-Drapac Pro Cycling ..05:10:35  +  00:03:16=41,052 
154 NEDRobert GesinkNLDTeam Lotto NL - Jumbo05:10:35  +  00:03:16=41,052 
155 ITAMatteo BonoUAEUAE Team Emirates05:10:35  +  00:03:16=41,052 
156 GERMarcel SiebergBELLotto Soudal05:10:35  +  00:03:16=41,052 
157 GERChristian KneesGBRSky Procycling05:10:43  +  00:03:24=41,034 
158 GERNils PolittCHETeam Katusha - Alpecin05:10:45  +  00:03:26=41,030 
159 GERMarcus BurghardtDEUBora–Hansgrohe05:10:45  +  00:03:26=41,030 
160 GERRobert WagnerNLDTeam Lotto NL - Jumbo05:10:45  +  00:03:26=41,030 
161 RSAJaco VenterZAFDimension Data05:10:45  +  00:03:26=41,030 
162 SUIReto HollensteinCHETeam Katusha - Alpecin05:10:45  +  00:03:26=41,030 
163 FRAAmaël MoinardUSABMC Racing Team05:11:05  +  00:03:46=40,986 
164 FRAMickael DelageFRAFDJ05:11:08  +  00:03:49=40,979 
165 FRAChristophe LaporteFRACofidis – Solutions Crédits05:11:08  +  00:03:49=40,979 
166 WALLuke RoweGBRSky Procycling05:11:12  +  00:03:53=40,970 
167 ENGStephen CummingsZAFDimension Data05:11:12  +  00:03:53=40,970 
168 USATaylor PhinneyUSACannondale-Drapac Pro Cycling ..05:11:12  +  00:03:53=40,970 
169 FRAPierre RollandUSACannondale-Drapac Pro Cycling ..05:11:12  +  00:03:53=40,970 
170 GERGianluca BrambillaBELQuick-Step Floors05:11:17  +  00:03:58=40,959 
171 IOMMark CavendishZAFDimension Data05:11:17  +  00:03:58=40,959 
172 FRACyril LemoineFRACofidis – Solutions Crédits05:11:25  +  00:04:06=40,942 
173 ESPJavier Moreno BazánBHRBahrain-Merida05:11:33  +  00:04:14=40,924 
174 FRATony GallopinBELLotto Soudal05:11:33  +  00:04:14=40,924 
175 FRAAxel DomontFRAAg2r La Mondiale05:11:33  +  00:04:14=40,924 
176 ITAAlessandro De MarchiUSABMC Racing Team05:11:38  +  00:04:19=40,913 
177 ITADavide CimolaiFRAFDJ05:11:45  +  00:04:26=40,898 
178 ITAJacopo GuarnieriFRAFDJ05:11:45  +  00:04:26=40,898 
179 FRAThomas BoudatFRADirect Energie05:12:05  +  00:04:46=40,854 
180 AUSMark RenshawZAFDimension Data05:12:47  +  00:05:28=40,763 
181 AUTMarco HallerCHETeam Katusha - Alpecin05:13:01  +  00:05:42=40,733 
182 BELThomas De GendtBELLotto Soudal05:13:01  +  00:05:42=40,733 
183 AUTMichael GoglUSATrek – Segafredo05:13:42  +  00:06:23=40,644 
184 NEDTom LeezerNLDTeam Lotto NL - Jumbo05:16:47  +  00:09:28=40,248 
185 SLOBorut BozicBHRBahrain-Merida05:16:47  +  00:09:28=40,248 
186 NEDAlbert TimmerDEUTeam Sunweb05:19:05  +  00:11:46=39,958 
187 AUSAdam HansenBELLotto Soudal05:19:05  +  00:11:46=39,958 
188 FRARomain SicardFRADirect Energie05:19:13  +  00:11:54=39,942 
189 USANathan BrownUSACannondale-Drapac Pro Cycling ..05:19:13  +  00:11:54=39,942 
190 BELFrederik BackaertBELWanty – Groupe Gobert05:19:13  +  00:11:54=39,942 
191 GERJasha SütterlinESPMovistar Team05:19:48  +  00:12:29=39,869 
192 SVKJuraj SaganDEUBora–Hansgrohe05:19:48  +  00:12:29=39,869 
193 DDRRüdiger SeligDEUBora–Hansgrohe05:19:48  +  00:12:29=39,869 
194 BELJulien VermoteBELQuick-Step Floors05:19:48  +  00:12:29=39,869 
195 FRAOlivier Le GacFRAFDJ05:31:29  +  00:24:10=38,463 


Todays birthdays.

1874  Henri Timmermann
1877  Gustave Guillarme
1886  Guillaume Nyssen
1892  Albert Cartigny
1913  Arsène Mersch
1919  Jean Breuer
1927  Alfred Kain
1930  Edgard Sorgeloos
1937  Frans De Mulder
1960  Jacques Hanegraaf
1986  Andrey Zeits